Regional Weather Roundup
Issued by NWS

Home | Current Version | Previous Version | Graphics & Text | Print | Product List | Glossary On
Versions: 1 2 3 4 5 6 7 8 9 10 11 12 13 14 15 16 17 18 19 20 21 22 23 24 25 26 27 28 29 30 31 32 33 34 35 36 37 38 39 40 41 42 43 44 45 46 47 48 49 50
000
ASUS43 KMKX 252300
RWRWI

WISCONSIN REGIONAL WEATHER ROUNDUP
NATIONAL WEATHER SERVICE MILWAUKEE/SULLIVAN WI
500 PM CST SAT FEB 25 2017

NOTE: "FAIR" INDICATES FEW OR NO CLOUDS BELOW 12,000 FEET WITH NO
SIGNIFICANT WEATHER AND/OR OBSTRUCTIONS TO VISIBILITY.

WIZ001-002-006>008-014>016-023>028-260000-
NORTHWEST WISCONSIN

CITY           SKY/WX    TMP DP  RH WIND       PRES   REMARKS
SUPERIOR ARPT  CLOUDY    29  14  52 W12       29.81S WCI  20
ASHLAND        CLEAR     28  11  48 W12       29.80F WCI  18
HAYWARD        CLEAR     29   9  43 W8        29.80S WCI  21
SIREN          MOCLDY    31  13  48 W14       29.83S WCI  20
CUMBERLAND     PTCLDY    28  12  50 W13       29.84R WCI  18
RICE LAKE      CLEAR     29  11  47 CALM      29.86S
CHETEK         CLEAR     29  10  45 W7G16     29.85S WCI  22
LADYSMITH      CLEAR     27  10  48 W12       29.84S WCI  17
EAU CLAIRE     NOT AVBL
MENOMONIE      CLEAR     30  10  44 SW9       29.88F WCI  21
NEW RICHMOND   CLOUDY    31  13  47 W10       29.87S WCI  22
OSCEOLA        CLOUDY    32  17  53 W14       29.89F WCI  22
$$

WIZ003>005-009-010-017-018-260000-
NORTH CENTRAL WISCONSIN

CITY           SKY/WX    TMP DP  RH WIND       PRES   REMARKS
MANITOWISH WTR MOCLDY    20  10  63 NW7       29.75S WCI  11
ARBOR VITAE    CLOUDY    23  10  55 NW7         N/A  WCI  15
WOODRUFF       CLOUDY    23  10  55 NW7         N/A  WCI  15
RHINELANDER    PTCLDY    24   7  48 NW10G22   29.76R WCI  14
EAGLE RIVER    CLEAR     21   8  57 W12G20    29.74R WCI   9
LAND O LAKES   CLEAR     21  11  65 W8G16     29.75R WCI  11
PHILLIPS       CLEAR     25   7  47 W6G16     29.78S WCI  18
TOMAHAWK       PTCLDY    25   7  47 W9G17     29.79R WCI  15
MEDFORD        CLEAR     23   6  48 W8        29.81R WCI  14
MERRILL        NOT AVBL
$$

WIZ029-030-035-036-043>047-260000-
CENTRAL WISCONSIN

CITY           SKY/WX    TMP DP  RH WIND       PRES   REMARKS
WAUSAU         CLEAR     23   7  50 W12       29.81S WCI  12
MOSINEE        CLEAR     21   9  58 W13       29.84S WCI   9
MARSHFIELD     CLEAR     22   6  50 W10       29.85R WCI  11
STEVENS POINT  CLEAR     21   6  51 W9G17     29.86R WCI  11
WAUPACA        CLEAR     25   8  47 W10G20    29.88R WCI  15
WAUTOMA        CLEAR     22  10  60 W13       29.90R WCI  10
WISC RAPIDS    CLEAR     25   8  48 W10       29.88S WCI  15
CAMP DOUGLAS   NOT AVBL
$$

WIZ011>013-019>022-031-037>040-048>050-260000-
NORTHEAST WISCONSIN

CITY           SKY/WX    TMP DP  RH WIND       PRES   REMARKS
ANTIGO         CLEAR     21   7  54 W13G22    29.78S WCI   9
SHAWANO        CLEAR     24   9  53 CALM      29.85R
OCONTO         MOCLDY    23  10  57 W15G25    29.83R WCI  10
STURGEON BAY   PTCLDY    23  15  71 W12       29.82R WCI  12
GREEN BAY      CLEAR     22  11  62 W13       29.87R WCI  10
MANITOWOC      PTCLDY    21  12  68 W17G24    29.86R WCI   7
APPLETON       PTCLDY    19   7  58 W12       29.85R WCI   7
CLINTONVILLE   CLEAR     23   9  54 W12       29.86R WCI  12
OSHKOSH        CLEAR     22   9  57 W12       29.88R WCI  10
$$

WIZ032>034-041-042-053>061-260000-
SOUTHWEST WISCONSIN

CITY           SKY/WX    TMP DP  RH WIND       PRES   REMARKS
LA CROSSE      CLEAR     28  10  46 W9        29.96S WCI  19
SPARTA         CLEAR     26  11  52 W9        29.94S WCI  17
VIROQUA        CLEAR     24  10  56 W7        29.92S WCI  16
BOSCOBEL       CLEAR     28  10  46 W10       29.98R WCI  19
PRAIRIE DU CHI CLEAR     26  11  53 W10       29.99S WCI  17
PLATTEVILLE    CLEAR     26  16  66 W9        29.97R WCI  16
$$

WIZ056-057-062-063-064-067-068-260000-
SOUTH CENTRAL WISCONSIN

CITY           SKY/WX    TMP DP  RH WIND       PRES   REMARKS
REEDSBURG      CLEAR     25   9  51 W9G17     29.92S WCI  15
BARABOO/DELLS  CLEAR     24   9  53 W8        29.92R WCI  15
LONE ROCK      NOT AVBL
MINERAL POINT  CLEAR     27  18  69 W3        29.94R
MADISON        MOCLDY    24  11  57 W7        29.93R WCI  16
MIDDLETON      CLEAR     26  15  64 W6        29.93R WCI  19
WATERTOWN      PTCLDY    23  14  68 W10G18    29.91R WCI  12
MONROE         CLEAR     27  12  54 NW17G24   29.93S WCI  14
JANESVILLE     PTCLDY    27  14  59 NW13      29.94R WCI  16
$$

WIZ051-052-058>065-066-070>072-260000-
SOUTHEAST WISCONSIN

CITY           SKY/WX    TMP DP  RH WIND       PRES   REMARKS
MILWAUKEE      MOCLDY    24  12  60 W14G23    29.92R WCI  12
WAUKESHA       PTCLDY    19  10  68 W17G26    29.92R WCI   4
MILWAUKEE/TIMM MOCLDY    21  12  68 W17G23    29.92R WCI   7
RACINE         MOCLDY    24  12  60 W12       29.94R WCI  13
KENOSHA        PTCLDY    24  14  65 NW13      29.93R WCI  12
FOND DU LAC    FLURRIES  22  10  60 W12       29.90R WCI  10
SHEBOYGAN      CLEAR     21  12  68 W15       29.87R WCI   8
WEST BEND      CLOUDY    21  18  86 W7        29.89R WCI  13
JUNEAU         CLEAR     22  13  68 W7        29.91R WCI  13
$$

LSZ147-162-260000-
LAKE SUPERIOR

STATION/POSITION TIME  TEMP    WIND        PRES    WAVE
                       AIR SEA DIR/SP/G            HT/PER
                 (UTC) (F)     (DEG/KT/KT) (MB)    (FT/S)
DEVILS ISLAND    2200   26     250/ 17/ 21 1009.4S
PORT WING        2240   27     260/ 12/ 15 1009.8S
SAXON HARBOR     2230   27     260/  5/ 13 1009.5R
$$

LMZ867-665-643>646-260000-
LAKE MICHIGAN

STATION/POSITION TIME  TEMP    WIND        PRES    WAVE
                       AIR SEA DIR/SP/G            HT/PER
                 (UTC) (F)     (DEG/KT/KT) (MB)    (FT/S)
CHAMBERS ISLAND  2140   26      CALM  /  2 1007.8R
NORTHPORT PIER   2240   25     300/  3/  4 1008.5R
SISTER BAY       2235   23        CALM       N/A
KEWAUNEE LAKESHO 2224   23     290/ 15/ 23 1009.4
SHEBOYGAN LAKESH 2200   22     290/ 15/ 19 1012.2R
PORT WASHINGTON  2240   23     270/  9/ 18 1013.5R
MILWAUKEE LAKESH 2230   22     290/ 14/ 19   N/A
KENOSHA   LAKESH 2200   23     290/ 12/ 18 1013.5
$$

TC  - TEMPERATURE IN CELSIUS
VSB - VISIBILITY IN STATUTE MILES
WCI - WIND CHILL INDEX
HX  - HEAT INDEX





USA.gov is the U.S. government's official web portal to all federal, state and local government web resources and services.